Tracking 17699 objects as of 31-May-2016
HD Live streaming from Space Station
objects crossing your sky now

BREEZE-M DEB

Track BREEZE-M DEB now!
10-day predictions


NORAD ID: 34259
Int'l Code: 2006-006CA
Perigee: 1,065.5 km
Apogee: 14,776.8 km
Inclination: 50.9 °
Period: 283.4 minutes
Semi major axis: 14292 km
RCS: 0.2413 m2 (medium)
Launch date: February 28, 2006
Source: Commonwealth of Independent States (former USSR) (CIS)
Launch site: TYURATAM MISSILE AND SPACE COMPLEX (TTMTR)

Note: This is SATELLITE DEBRIS
Your satellite tracking list
Your tracking list is empty





NASA's NSSDC Master Catalog

Two Line Element Set (TLE):
1 34259U 06006CA  16151.61747156  .00000008  00000-0  00000+0 0  9993
2 34259  50.8718 235.4128 4796799  85.6291 325.6724  5.08108025191077
Source of the keplerian elements: AFSPC

N2YO: 491